GW2134 Weather Reports


time (UTC)temp
F
wind
direction
speed
knots
gust
knots
rain 1hr
in
rain 24hr
in
rain mn
in
humidity
%
barometer
mb
20260508060111 53 0 0.0 0.9 0.00 0.00 0.00 79 1017.5
20260508054638 53 0 0.0 0.9 0.00 0.00 0.00 80 1017.4
20260508053055 53 165 0.9 3.5 0.00 0.00 0.00 79 1017.2
20260508051550 53 0 0.0 0.9 0.00 0.00 0.00 79 1017.2
20260508050053 53 0 0.0 0.9 0.00 0.00 0.00 79 1017.0
20260508044550 52 0 0.0 2.6 0.00 0.00 0.00 79 1017.0
20260508043058 51 0 0.0 2.6 0.00 0.00 0.00 79 1016.8
20260508041553 51 0 0.0 0.0 0.00 0.00 0.00 80 1016.7
20260508040052 51 0 0.0 0.9 0.00 0.00 0.00 80 1016.5
20260508034554 51 0 0.0 0.0 0.00 0.00 0.00 81 1016.4
20260508033055 51 17 0.0 0.9 0.00 0.00 0.00 79 1016.4
20260508031559 51 0 0.0 0.9 0.00 0.00 0.00 78 1016.4
20260508030059 51 92 0.0 0.9 0.00 0.00 0.00 76 1016.4
20260508024603 52 0 0.0 1.7 0.00 0.00 0.00 76 1016.4
20260508023051 53 0 0.0 1.7 0.00 0.00 0.00 75 1016.3
20260508021552 53 0 0.0 3.5 0.00 0.00 0.00 74 1016.3
20260508020105 53 328 1.7 3.5 0.00 0.00 0.00 73 1016.5
20260508014602 53 313 1.7 4.3 0.00 0.00 0.00 72 1016.5
20260508013051 53 75 0.0 2.6 0.00 0.00 0.00 74 1016.6
20260508011553 52 28 2.6 4.3 0.00 0.00 0.00 77 1016.8
20260508004558 51 0 0.9 2.6 0.00 0.00 0.00 80 1017.0
20260508003058 51 321 0.0 1.7 0.00 0.00 0.00 80 1017.2
20260508001600 51 0 0.0 1.7 0.00 0.00 0.00 80 1017.1
20260508000057 51 321 1.7 3.5 0.00 0.00 0.00 80 1017.1
20260507234552 51 342 0.0 2.6 0.00 0.00 0.00 79 1017.2
20260507233051 52 349 0.0 0.9 0.00 0.00 0.00 77 1017.3
20260507231556 52 0 0.0 0.9 0.00 0.00 0.00 77 1017.3
20260507230056 53 0 0.0 2.6 0.00 0.00 0.00 77 1017.3
20260507224556 53 333 1.7 3.5 0.00 0.00 0.00 77 1017.3
20260507223055 53 0 0.0 0.9 0.00 0.00 0.00 76 1017.4
20260507221555 53 0 0.0 0.9 0.00 0.00 0.00 76 1017.2
20260507220056 53 0 0.0 1.7 0.00 0.00 0.00 76 1017.1
20260507214556 53 329 1.7 4.3 0.00 0.00 0.00 76 1017.0
20260507213057 53 344 0.9 3.5 0.00 0.00 0.00 75 1017.0
20260507211555 53 317 0.9 2.6 0.00 0.00 0.00 74 1017.0
20260507210149 54 0 0.0 0.9 0.00 0.00 0.00 74 1016.8
20260507204551 54 201 0.0 4.3 0.00 0.00 0.00 74 1016.8
20260507203059 54 355 2.6 4.3 0.00 0.00 0.00 74 1016.9
20260507201552 54 350 2.6 4.3 0.00 0.00 0.00 73 1017.1
20260507200052 54 0 0.0 2.6 0.00 0.00 0.00 73 1016.8
20260507194554 54 297 1.7 4.3 0.00 0.00 0.00 73 1016.9
20260507193055 54 28 0.0 2.6 0.00 0.00 0.00 73 1016.7
20260507191558 54 313 2.6 4.3 0.00 0.00 0.00 73 1016.7
20260507190051 55 30 0.9 3.5 0.00 0.00 0.00 72 1016.4
20260507184554 55 336 2.6 4.3 0.00 0.00 0.00 72 1016.4
20260507183056 56 338 2.6 4.3 0.00 0.00 0.00 72 1016.3
20260507181553 56 355 1.7 5.2 0.00 0.00 0.00 70 1016.1
20260507180059 57 355 3.5 5.2 0.00 0.00 0.00 69 1016.1
20260507174605 58 360 1.7 4.3 0.00 0.00 0.00 67 1015.9
20260507173104 58 324 2.6 4.3 0.00 0.00 0.00 67 1015.8
20260507171611 61 339 0.9 2.6 0.00 0.00 0.00 64 1015.7
20260507170053 62 333 0.0 1.7 0.00 0.00 0.00 61 1015.6
20260507164553 63 0 0.0 1.7 0.00 0.00 0.00 62 1015.6
20260507163054 63 0 0.9 3.5 0.00 0.00 0.00 60 1015.7
20260507161601 64 0 0.9 3.5 0.00 0.00 0.00 54 1015.6
20260507160057 65 178 0.0 7.0 0.00 0.00 0.00 54 1015.5
20260507154553 65 94 1.7 4.3 0.00 0.00 0.00 54 1015.3
20260507153101 65 267 1.7 7.0 0.00 0.00 0.00 56 1015.4
20260507151558 65 0 1.7 5.2 0.00 0.00 0.00 56 1015.4
20260507150104 65 132 3.5 9.6 0.00 0.00 0.00 56 1015.5
20260507144554 65 140 3.5 7.8 0.00 0.00 0.00 57 1015.5
20260507143058 64 167 2.6 6.1 0.00 0.00 0.00 59 1015.6
20260507141553 64 185 1.7 5.2 0.00 0.00 0.00 57 1015.5
20260507140108 65 153 2.6 7.8 0.00 0.00 0.00 57 1015.3
20260507134556 65 169 3.5 8.7 0.00 0.00 0.00 57 1015.5
20260507133101 65 164 4.3 10.4 0.00 0.00 0.00 56 1015.7
20260507131554 67 148 3.5 8.7 0.00 0.00 0.00 52 1015.7
20260507130108 66 0 0.9 5.2 0.00 0.00 0.00 51 1015.7
20260507124613 65 140 4.3 8.7 0.00 0.04 0.00 52 1015.8
20260507123053 65 175 4.3 13.9 0.00 0.04 0.00 54 1015.8
20260507121554 66 167 3.5 8.7 0.00 0.04 0.00 49 1015.7
20260507120054 67 142 2.6 7.0 0.00 0.04 0.00 47 1015.8
20260507114610 69 166 1.7 10.4 0.00 0.14 0.00 44 1015.7
20260507113055 69 100 1.7 7.8 0.00 0.14 0.00 46 1015.6
20260507111553 68 182 1.7 7.0 0.00 0.14 0.00 44 1015.8
20260507110052 66 315 0.9 7.0 0.00 0.14 0.00 46 1015.9
20260507104556 67 134 2.6 6.1 0.00 0.14 0.00 46 1016.3
20260507103055 66 185 1.7 8.7 0.00 0.14 0.00 49 1016.3
20260507101559 65 126 3.5 9.6 0.00 0.14 0.00 49 1016.4
20260507100057 65 176 1.7 7.0 0.00 0.14 0.00 45 1016.4
20260507094552 64 303 1.7 6.1 0.00 0.16 0.00 47 1016.4
20260507093054 64 329 3.5 7.8 0.00 0.16 0.00 51 1016.5
20260507091550 64 130 1.7 6.1 0.00 0.16 0.00 47 1016.4
20260507090105 62 0 0.9 4.3 0.00 0.16 0.00 52 1016.5
20260507084552 62 108 0.0 5.2 0.00 0.22 0.00 49 1016.5
20260507083054 60 138 0.0 4.3 0.00 0.22 0.00 52 1016.4
20260507081553 61 0 0.0 2.6 0.00 0.22 0.00 58 1016.3
20260507074606 58 99 0.9 6.1 0.00 0.24 0.00 59 1016.2
20260507073054 56 119 0.0 3.5 0.00 0.24 0.00 66 1016.1
20260507071555 55 44 0.0 2.6 0.00 0.24 0.00 68 1016.0
20260507070106 54 130 0.9 3.5 0.00 0.24 0.00 68 1016.0
20260507064559 54 117 0.9 4.3 0.00 0.30 0.00 67 1015.7
20260507063058 54 133 0.0 2.6 0.00 0.30 0.00 69 1015.7
20260507061552 52 19 0.0 2.6 0.00 0.30 0.00 71 1015.6